Newport News, VA

8:45 PM EST on November 20, 2019 (GMT -0500)
Newport News-Williamsburg International

Weather History for KPHF - October, 2019

Change the Weather History Date:

Wednesday, October 23, 2019

  Actual Average Record
Temperature  
Mean Temperature 60 °F -  
Max Temperature 71 °F 70 °F 84 °F (2007)
Min Temperature 48 °F 51 °F 3 °F (2003)
Degree Days  
Heating Degree Days 6    
Growing Degree Days 10 (Base 50)    
Moisture  
Dew Point 50 °F    
Average Humidity 72    
Maximum Humidity 88    
Minimum Humidity 27    
Precipitation  
Precipitation 0.00 in - - ()
Sea Level Pressure  
Sea Level Pressure 30.03 in    
Wind  
Wind Speed 6 mph ()    
Max Wind Speed 12 mph    
Max Gust Speed -    
Visibility 10.0 miles    
Events      
Averages and records for this station are not official NWS values.
T = Trace of Precipitation, MM = Missing Value Source: Averaged Metar Reports

Daily Weather History Graph

Daily Weather History Graph

Search for Another Location

Airport or City:

Astronomy

Oct. 23, 2019 Rise Set
Actual Time 7:21 AM EDT 6:18 PM EDT
Civil Twilight 6:54 AM EDT 6:45 PM EDT
Nautical Twilight 6:24 AM EDT 7:15 PM EDT
Astronomical Twilight 5:54 AM EDT 7:45 PM EDT
Moon 1:47 AM EDT (10/23) 3:59 PM EDT (10/23)
Length of Visible Light 11h 50m
Length of Day
10h 57m
Waning Crescent, 27% of the Moon is Illuminated
Oct 23
Waning Crescent
Oct 27
New
Nov 4
First Quarter
Nov 12
Full
Nov 19
Last Quarter

Hourly Weather History & Observations

Time (EDT) Temp. Dew Point Humidity Pressure Visibility Wind Dir Wind Speed Gust Speed Precip Events Conditions
12:03 AM 64.9 °F 59.0 °F 81% 29.85 in 10.0 mi NNW 11.5 mph - N/A   Scattered Clouds
12:54 AM 63.0 °F 57.9 °F 84% 29.86 in 10.0 mi WNW 8.1 mph - N/A   Mostly Cloudy
1:42 AM 62.1 °F 57.0 °F 84% 29.87 in 10.0 mi NW 8.1 mph - N/A   Mostly Cloudy
1:54 AM 62.1 °F 57.0 °F 84% 29.87 in 10.0 mi NW 8.1 mph - N/A   Scattered Clouds
2:54 AM 60.1 °F 55.9 °F 86% 29.89 in 10.0 mi WNW 5.8 mph - N/A   Overcast
3:49 AM 59.0 °F 55.4 °F 88% 29.90 in 10.0 mi WNW 5.8 mph - N/A   Partly Cloudy
3:54 AM 59.0 °F 55.0 °F 87% 29.90 in 10.0 mi WNW 6.9 mph - N/A   Scattered Clouds
4:41 AM 59.0 °F 55.0 °F 87% 29.92 in 10.0 mi WNW 6.9 mph - N/A   Mostly Cloudy
5:54 AM 57.9 °F 54.0 °F 87% 29.96 in 10.0 mi WNW 5.8 mph - N/A   Mostly Cloudy
6:54 AM 57.9 °F 54.0 °F 87% 29.99 in 10.0 mi NNW 8.1 mph - N/A   Mostly Cloudy
7:29 AM 57.0 °F 53.1 °F 87% 30.02 in 10.0 mi WNW 6.9 mph - N/A   Scattered Clouds
7:54 AM 57.9 °F 53.1 °F 84% 30.03 in 10.0 mi NW 8.1 mph - N/A   Clear
8:54 AM 60.1 °F 53.1 °F 78% 30.06 in 10.0 mi WNW 6.9 mph - N/A   Clear
9:54 AM 64.0 °F 51.1 °F 63% 30.08 in 10.0 mi Variable 5.8 mph - N/A   Clear
10:54 AM 66.0 °F 46.0 °F 48% 30.08 in 10.0 mi WNW 8.1 mph - N/A   Clear
1:54 PM 69.1 °F 44.1 °F 40% 30.07 in 10.0 mi West 10.4 mph - N/A   Clear
2:54 PM 70.0 °F 42.1 °F 36% 30.08 in 10.0 mi Variable 6.9 mph - N/A   Clear
3:54 PM 71.1 °F 39.0 °F 31% 30.09 in 10.0 mi WNW 5.8 mph - N/A   Clear
4:54 PM 70.0 °F 34.0 °F 27% 30.10 in 10.0 mi West 5.8 mph - N/A   Clear
5:54 PM 66.0 °F 37.9 °F 36% 30.13 in 10.0 mi WNW 4.6 mph - N/A   Clear
7:54 PM 53.1 °F 46.9 °F 80% 30.18 in 10.0 mi Calm Calm - N/A   Clear
8:54 PM 51.1 °F 46.0 °F 83% 30.20 in 10.0 mi Calm Calm - N/A   Clear
9:54 PM 48.9 °F 45.0 °F 86% 30.22 in 10.0 mi Calm Calm - N/A   Clear
10:54 PM 50.0 °F 45.0 °F 83% 30.24 in 10.0 mi Calm Calm - N/A   Clear
11:54 PM 48.0 °F 44.1 °F 86% 30.24 in 10.0 mi Calm Calm - N/A   Clear